User: anonymous   Login
Location: Hickory_CSC
(35.7330°N, 81.3330°W)
Time: 00:44:26
(UTC-04:00)
Language:

Cosmos 1356 Rocket - Orbit

View from above orbital plane
View from above orbital plane
View from above satellite
View from above satellite

Ground track
Ground track

The orbit data is extracted from the following two-line orbital elements,

1 13154U 82039B   16239.15826870  .00000286  00000-0  21872-4 0  9994
2 13154  81.1838 203.4846 0040634 170.2492 189.9525 14.98107718859562
Epoch (UTC): 26 August 2016 03:47:54
Eccentricity: 0.0040634
inclination: 81.1838°
perigee height: 544 km
apogee height: 601 km
right ascension of ascending node: 203.4846°
argument of perigee: 170.2492°
revolutions per day: 14.98107718
mean anomaly at epoch: 189.9525°
orbit number at epoch: 85956

The dashed part of the orbit path shows where the satellite is in the earth's shadow,  

DLR